ADZ22 UHMP-UHMA

Flight info

Callsign ADZ22
Flight time 1h 57m
Altitude 17000
Route N0240F170 ARBOM W80 GERBI
Aircraft AN24/M-A/L

Departure

Time 2026-04-12 06:20
Airport Pevek Airport (UHMP)

Arrival

Time 2026-04-12 08:17
Airport Ugolny Yuri Ryktheu Airport (UHMA)
Time Latitude Longitude Altitude Speed Heading
2026-04-12 05:52 69.78906 170.59998 10 ft 0 kts 167°
2026-04-12 06:07 69.78898 170.60002 10 ft 2 kts 174°
2026-04-12 06:07 69.78874 170.59981 10 ft 9 kts 213°
2026-04-12 06:07 69.78855 170.59921 10 ft 0 kts 236°
2026-04-12 06:08 69.78840 170.59813 10 ft 11 kts 259°
2026-04-12 06:08 69.78831 170.59701 10 ft 0 kts 257°
2026-04-12 06:08 69.78831 170.59698 10 ft 0 kts 257°
2026-04-12 06:10 69.78831 170.59697 10 ft 1 kts 257°
2026-04-12 06:10 69.78822 170.59584 10 ft 1 kts 258°
2026-04-12 06:10 69.78822 170.59581 10 ft 0 kts 258°
2026-04-12 06:10 69.78818 170.59535 10 ft 2 kts 254°
2026-04-12 06:11 69.78758 170.59405 10 ft 15 kts 184°
2026-04-12 06:11 69.78666 170.59442 10 ft 8 kts 167°
2026-04-12 06:11 69.78660 170.59447 10 ft 7 kts 167°
2026-04-12 06:11 69.78645 170.59457 10 ft 5 kts 167°
2026-04-12 06:12 69.78622 170.59471 10 ft 3 kts 167°
2026-04-12 06:12 69.78569 170.59477 10 ft 7 kts 181°
2026-04-12 06:12 69.78541 170.59492 10 ft 1 kts 169°
2026-04-12 06:12 69.78524 170.59505 10 ft 9 kts 168°
2026-04-12 06:13 69.78464 170.59540 10 ft 4 kts 168°
2026-04-12 06:13 69.78440 170.59557 10 ft 8 kts 163°
2026-04-12 06:13 69.78320 170.59641 10 ft 25 kts 167°
2026-04-12 06:13 69.78123 170.59770 10 ft 28 kts 169°
2026-04-12 06:14 69.77977 170.59860 10 ft 15 kts 167°
2026-04-12 06:14 69.77913 170.59903 10 ft 5 kts 167°
2026-04-12 06:14 69.77889 170.59920 10 ft 4 kts 165°
2026-04-12 06:14 69.77781 170.59993 10 ft 26 kts 166°
2026-04-12 06:15 69.77587 170.60095 10 ft 22 kts 166°
2026-04-12 06:15 69.77456 170.60115 10 ft 17 kts 174°
2026-04-12 06:15 69.77376 170.60208 10 ft 0 kts 154°
2026-04-12 06:15 69.77371 170.60216 10 ft 0 kts 154°
2026-04-12 06:16 69.77348 170.60248 10 ft 1 kts 156°
2026-04-12 06:16 69.77325 170.60280 10 ft 10 kts 153°
2026-04-12 06:16 69.77320 170.60350 10 ft 1 kts 13°
2026-04-12 06:16 69.77323 170.60352 10 ft 1 kts
2026-04-12 06:17 69.77349 170.60333 10 ft 0 kts 347°
2026-04-12 06:18 69.77351 170.60332 10 ft 4 kts 346°
2026-04-12 06:19 69.77578 170.60164 10 ft 70 kts 348°
2026-04-12 06:19 69.78251 170.59712 11 ft 123 kts 345°
2026-04-12 06:19 69.79163 170.59067 160 ft 142 kts 339°
2026-04-12 06:19 69.80166 170.58101 362 ft 159 kts 335°
2026-04-12 06:20 69.81229 170.56946 618 ft 172 kts 334°
2026-04-12 06:20 69.82333 170.55692 904 ft 180 kts 334°
2026-04-12 06:20 69.83515 170.54524 1258 ft 186 kts 343°
2026-04-12 06:20 69.84821 170.54009 1628 ft 190 kts 348°
2026-04-12 06:21 69.86111 170.53590 1927 ft 188 kts 348°
2026-04-12 06:21 69.87409 170.53148 2204 ft 187 kts 348°
2026-04-12 06:21 69.88701 170.52683 2470 ft 187 kts 347°
2026-04-12 06:21 69.89986 170.52193 2730 ft 187 kts 347°
2026-04-12 06:22 69.91269 170.51682 3040 ft 185 kts 347°
2026-04-12 06:22 69.92519 170.51141 3359 ft 181 kts 342°
2026-04-12 06:22 69.93545 170.49350 3598 ft 170 kts 301°
2026-04-12 06:22 69.93793 170.46152 3780 ft 168 kts 257°
2026-04-12 06:23 69.93113 170.43396 3954 ft 176 kts 213°
2026-04-12 06:23 69.91898 170.42844 4137 ft 188 kts 175°
2026-04-12 06:23 69.90665 170.44231 4403 ft 193 kts 155°
2026-04-12 06:23 69.89523 170.46381 4677 ft 194 kts 151°
2026-04-12 06:24 69.88377 170.48404 4947 ft 192 kts 157°
2026-04-12 06:24 69.87202 170.50137 5207 ft 192 kts 158°
2026-04-12 06:24 69.86009 170.51904 5466 ft 192 kts 158°
2026-04-12 06:24 69.84830 170.53673 5723 ft 192 kts 157°
2026-04-12 06:25 69.83647 170.55478 5983 ft 192 kts 157°
2026-04-12 06:25 69.82457 170.57318 6245 ft 192 kts 156°
2026-04-12 06:25 69.81289 170.59161 6504 ft 193 kts 154°
2026-04-12 06:25 69.80164 170.61278 6778 ft 193 kts 151°
2026-04-12 06:26 69.79054 170.63393 7040 ft 193 kts 149°
2026-04-12 06:26 69.78005 170.65868 7310 ft 194 kts 142°
2026-04-12 06:26 69.77023 170.68541 7564 ft 194 kts 141°
2026-04-12 06:26 69.75990 170.70946 7815 ft 190 kts 156°
2026-04-12 06:27 69.74796 170.72449 8071 ft 188 kts 162°
2026-04-12 06:27 69.73606 170.73915 8310 ft 190 kts 156°
2026-04-12 06:27 69.72482 170.75961 8571 ft 190 kts 152°
2026-04-12 06:27 69.71330 170.77840 8823 ft 189 kts 156°
2026-04-12 06:28 69.70174 170.79590 9057 ft 190 kts 156°
2026-04-12 06:28 69.69004 170.81377 9296 ft 191 kts 155°
2026-04-12 06:28 69.67827 170.83195 9539 ft 191 kts 155°
2026-04-12 06:28 69.66660 170.85005 9782 ft 191 kts 155°
2026-04-12 06:29 69.65500 170.86797 10022 ft 191 kts 156°
2026-04-12 06:29 69.64308 170.88496 10275 ft 191 kts 156°
2026-04-12 06:29 69.63133 170.90234 10519 ft 190 kts 155°
2026-04-12 06:29 69.61984 170.92145 10777 ft 190 kts 148°
2026-04-12 06:30 69.60917 170.94296 11025 ft 190 kts 146°
2026-04-12 06:30 69.59828 170.96460 11262 ft 190 kts 146°
2026-04-12 06:30 69.58733 170.98602 11493 ft 190 kts 146°
2026-04-12 06:30 69.57632 171.00714 11715 ft 191 kts 146°
2026-04-12 06:31 69.56522 171.02806 11928 ft 192 kts 146°
2026-04-12 06:31 69.55391 171.04900 12136 ft 194 kts 146°
2026-04-12 06:31 69.54255 171.06978 12340 ft 195 kts 146°
2026-04-12 06:31 69.53108 171.09070 12541 ft 197 kts 146°
2026-04-12 06:32 69.51956 171.11124 12742 ft 198 kts 149°
2026-04-12 06:32 69.50738 171.12950 12948 ft 199 kts 151°
2026-04-12 06:32 69.49497 171.14763 13144 ft 199 kts 151°
2026-04-12 06:32 69.48267 171.16573 13340 ft 200 kts 151°
2026-04-12 06:33 69.47031 171.18398 13493 ft 203 kts 151°
2026-04-12 06:33 69.45760 171.20271 13598 ft 208 kts 151°
2026-04-12 06:33 69.44508 171.22333 13731 ft 210 kts 147°
2026-04-12 06:33 69.43251 171.24522 13870 ft 212 kts 147°
2026-04-12 06:34 69.41981 171.26709 14019 ft 213 kts 147°
2026-04-12 06:34 69.40713 171.28876 14174 ft 214 kts 147°
2026-04-12 06:34 69.39438 171.31049 14332 ft 215 kts 147°
2026-04-12 06:34 69.38163 171.33215 14490 ft 215 kts 147°
2026-04-12 06:35 69.35600 171.37558 14804 ft 215 kts 147°
2026-04-12 06:35 69.34325 171.39712 14958 ft 215 kts 147°
2026-04-12 06:35 69.33031 171.41895 15084 ft 216 kts 147°
2026-04-12 06:36 69.31740 171.44067 15212 ft 217 kts 147°
2026-04-12 06:36 69.30437 171.46254 15345 ft 218 kts 147°
2026-04-12 06:36 69.29151 171.48410 15477 ft 218 kts 147°
2026-04-12 06:36 69.27850 171.50588 15612 ft 218 kts 147°
2026-04-12 06:37 69.26551 171.52757 15747 ft 218 kts 147°
2026-04-12 06:37 69.25239 171.54947 15883 ft 218 kts 147°
2026-04-12 06:37 69.23938 171.57111 16018 ft 219 kts 147°
2026-04-12 06:37 69.22627 171.59286 16152 ft 219 kts 147°
2026-04-12 06:38 69.21313 171.61464 16286 ft 219 kts 147°
2026-04-12 06:38 69.20016 171.63608 16417 ft 218 kts 147°
2026-04-12 06:38 69.18706 171.65775 16512 ft 220 kts 148°
2026-04-12 06:38 69.17361 171.68010 16552 ft 225 kts 148°
2026-04-12 06:39 69.16025 171.70245 16612 ft 227 kts 148°
2026-04-12 06:39 69.14657 171.72536 16689 ft 229 kts 148°
2026-04-12 06:39 69.13277 171.74844 16777 ft 230 kts 148°
2026-04-12 06:39 69.11916 171.77122 16870 ft 231 kts 148°
2026-04-12 06:40 69.10532 171.79440 16925 ft 233 kts 148°
2026-04-12 06:40 69.09122 171.81801 16990 ft 235 kts 148°
2026-04-12 06:40 69.07729 171.84132 17061 ft 236 kts 148°
2026-04-12 06:40 69.06306 171.86514 17055 ft 241 kts 148°
2026-04-12 06:41 69.04864 171.88925 17044 ft 244 kts 148°
2026-04-12 06:41 69.03401 171.91367 17057 ft 247 kts 148°
2026-04-12 06:41 69.01923 171.93829 17061 ft 248 kts 148°
2026-04-12 06:41 69.00442 171.96289 17063 ft 246 kts 148°
2026-04-12 06:42 68.98979 171.98712 17057 ft 245 kts 148°
2026-04-12 06:42 68.97514 172.01134 17063 ft 244 kts 148°
2026-04-12 06:42 68.97250 172.01570 17059 ft 244 kts 148°
2026-04-12 06:42 68.96468 172.02858 17057 ft 244 kts 148°
2026-04-12 06:43 68.95016 172.05249 17059 ft 243 kts 148°
2026-04-12 06:43 68.93562 172.07636 17065 ft 242 kts 148°
2026-04-12 06:43 68.92109 172.10020 17056 ft 242 kts 148°
2026-04-12 06:43 68.90673 172.12370 17065 ft 241 kts 148°
2026-04-12 06:44 68.89215 172.14751 17038 ft 242 kts 148°
2026-04-12 06:44 68.87780 172.17053 17046 ft 241 kts 148°
2026-04-12 06:44 68.86319 172.19369 17076 ft 239 kts 148°
2026-04-12 06:44 68.84876 172.21652 17064 ft 240 kts 148°
2026-04-12 06:45 68.83442 172.23920 17061 ft 240 kts 148°
2026-04-12 06:45 68.81989 172.26215 17065 ft 239 kts 148°
2026-04-12 06:45 68.80548 172.28490 17057 ft 239 kts 148°
2026-04-12 06:45 68.79115 172.30748 17065 ft 239 kts 148°
2026-04-12 06:46 68.77669 172.33023 17061 ft 239 kts 148°
2026-04-12 06:46 68.76226 172.35288 17062 ft 239 kts 148°
2026-04-12 06:46 68.74783 172.37550 17067 ft 238 kts 148°
2026-04-12 06:46 68.73347 172.39798 17060 ft 239 kts 148°
2026-04-12 06:47 68.71909 172.42046 17066 ft 238 kts 148°
2026-04-12 06:47 68.70468 172.44296 17061 ft 238 kts 148°
2026-04-12 06:47 68.69032 172.46533 17059 ft 238 kts 148°
2026-04-12 06:47 68.67582 172.48791 17065 ft 238 kts 148°
2026-04-12 06:48 68.66156 172.51009 17058 ft 238 kts 148°
2026-04-12 06:48 68.64710 172.53253 17064 ft 238 kts 148°
2026-04-12 06:48 68.63277 172.55473 17064 ft 238 kts 148°
2026-04-12 06:48 68.61822 172.57722 17061 ft 238 kts 148°
2026-04-12 06:49 68.60397 172.59926 17068 ft 238 kts 148°
2026-04-12 06:49 68.58962 172.62141 17058 ft 238 kts 148°
2026-04-12 06:49 68.57507 172.64384 17062 ft 238 kts 148°
2026-04-12 06:49 68.56894 172.65328 17057 ft 238 kts 149°
2026-04-12 06:50 68.55446 172.67567 17064 ft 238 kts 149°
2026-04-12 06:50 68.54003 172.69812 17058 ft 238 kts 149°
2026-04-12 06:50 68.52582 172.72020 17064 ft 238 kts 149°
2026-04-12 06:50 68.51136 172.74263 17065 ft 238 kts 149°
2026-04-12 06:51 68.49699 172.76486 17060 ft 238 kts 149°
2026-04-12 06:51 68.48254 172.78717 17067 ft 238 kts 149°
2026-04-12 06:51 68.46817 172.80933 17061 ft 238 kts 149°
2026-04-12 06:51 68.45380 172.83141 17059 ft 238 kts 149°
2026-04-12 06:52 68.43948 172.85327 17066 ft 238 kts 149°
2026-04-12 06:52 68.42497 172.87520 17059 ft 238 kts 149°
2026-04-12 06:52 68.41045 172.89688 17062 ft 238 kts 149°
2026-04-12 06:52 68.39586 172.91846 17064 ft 238 kts 149°
2026-04-12 06:53 68.38135 172.93971 17057 ft 239 kts 149°
2026-04-12 06:53 68.36666 172.96103 17064 ft 239 kts 149°
2026-04-12 06:53 68.35196 172.98218 17062 ft 239 kts 149°
2026-04-12 06:53 68.33742 173.00290 17057 ft 240 kts 149°
2026-04-12 06:54 68.32246 173.02406 17064 ft 240 kts 149°
2026-04-12 06:54 68.30773 173.04474 17060 ft 241 kts 149°
2026-04-12 06:54 68.29312 173.06509 17060 ft 241 kts 149°
2026-04-12 06:54 68.27813 173.08594 17065 ft 241 kts 149°
2026-04-12 06:55 68.26337 173.10643 17058 ft 242 kts 149°
2026-04-12 06:55 68.24842 173.12715 17066 ft 242 kts 149°
2026-04-12 06:55 68.23340 173.14796 17063 ft 242 kts 149°
2026-04-12 06:55 68.21846 173.16861 17058 ft 242 kts 149°
2026-04-12 06:56 68.20354 173.18927 17066 ft 242 kts 148°
2026-04-12 06:56 68.18872 173.21120 17063 ft 242 kts 146°
2026-04-12 06:56 68.17458 173.23474 17062 ft 242 kts 144°
2026-04-12 06:56 68.16028 173.25874 17060 ft 242 kts 144°
2026-04-12 06:57 68.14600 173.28253 17059 ft 242 kts 145°
2026-04-12 06:57 68.13175 173.30608 17068 ft 242 kts 145°
2026-04-12 06:57 68.11737 173.32974 17061 ft 242 kts 145°
2026-04-12 06:57 68.10294 173.35344 17060 ft 243 kts 145°
2026-04-12 06:58 68.08873 173.37676 17067 ft 242 kts 145°
2026-04-12 06:58 68.07417 173.40059 17060 ft 243 kts 145°
2026-04-12 06:58 68.05982 173.42407 17063 ft 243 kts 145°
2026-04-12 06:58 68.04559 173.44733 17067 ft 243 kts 145°
2026-04-12 06:59 68.03106 173.47102 17060 ft 243 kts 145°
2026-04-12 06:59 68.01669 173.49409 17069 ft 243 kts 147°
2026-04-12 06:59 68.00158 173.51546 17057 ft 245 kts 148°
2026-04-12 07:00 67.97170 173.55740 17058 ft 245 kts 148°
2026-04-12 07:00 67.95673 173.57860 17067 ft 244 kts 148°
2026-04-12 07:00 67.94164 173.59993 17062 ft 245 kts 148°
2026-04-12 07:00 67.92660 173.62112 17061 ft 245 kts 148°
2026-04-12 07:01 67.91158 173.64223 17065 ft 245 kts 148°
2026-04-12 07:01 67.89649 173.66345 17046 ft 246 kts 149°
2026-04-12 07:01 67.88139 173.68465 17023 ft 246 kts 149°
2026-04-12 07:01 67.86643 173.70546 17069 ft 244 kts 149°
2026-04-12 07:02 67.85131 173.72644 17065 ft 245 kts 149°
2026-04-12 07:02 67.83617 173.74744 17063 ft 245 kts 149°
2026-04-12 07:02 67.82110 173.76829 17062 ft 245 kts 149°
2026-04-12 07:02 67.80614 173.78897 17058 ft 245 kts 149°
2026-04-12 07:03 67.79099 173.80989 17067 ft 245 kts 149°
2026-04-12 07:03 67.77606 173.83046 17061 ft 245 kts 149°
2026-04-12 07:03 67.76100 173.85120 17063 ft 245 kts 149°
2026-04-12 07:03 67.74588 173.87198 17064 ft 245 kts 149°
2026-04-12 07:04 67.73065 173.89288 17057 ft 245 kts 149°
2026-04-12 07:04 67.71556 173.91357 17066 ft 245 kts 149°
2026-04-12 07:04 67.70046 173.93425 17063 ft 245 kts 149°
2026-04-12 07:04 67.68542 173.95480 17063 ft 245 kts 149°
2026-04-12 07:05 67.67041 173.97531 17065 ft 245 kts 149°
2026-04-12 07:05 67.65532 173.99588 17058 ft 245 kts 149°
2026-04-12 07:05 67.64021 174.01646 17063 ft 245 kts 149°
2026-04-12 07:05 67.62497 174.03719 17065 ft 245 kts 149°
2026-04-12 07:06 67.60993 174.05760 17058 ft 245 kts 149°
2026-04-12 07:06 67.59483 174.07808 17066 ft 245 kts 149°
2026-04-12 07:06 67.57955 174.09877 17064 ft 245 kts 149°
2026-04-12 07:06 67.56451 174.11909 17062 ft 245 kts 149°
2026-04-12 07:07 67.54936 174.13957 17065 ft 245 kts 149°
2026-04-12 07:07 67.53422 174.15999 17061 ft 245 kts 149°
2026-04-12 07:07 67.51916 174.18025 17059 ft 245 kts 149°
2026-04-12 07:07 67.50391 174.20076 17065 ft 245 kts 149°
2026-04-12 07:08 67.48888 174.22102 17060 ft 245 kts 148°
2026-04-12 07:08 67.47433 174.24348 17080 ft 243 kts 143°
2026-04-12 07:08 67.46021 174.26840 17054 ft 244 kts 142°
2026-04-12 07:08 67.44612 174.29308 17061 ft 243 kts 142°
2026-04-12 07:09 67.43214 174.31732 17059 ft 243 kts 142°
2026-04-12 07:09 67.41812 174.34155 17065 ft 243 kts 142°
2026-04-12 07:09 67.40430 174.36746 17073 ft 242 kts 137°
2026-04-12 07:09 67.39141 174.39499 17054 ft 243 kts 137°
2026-04-12 07:10 67.37808 174.42172 17058 ft 243 kts 137°
2026-04-12 07:10 67.36482 174.44875 17063 ft 243 kts 140°
2026-04-12 07:10 67.35062 174.47290 17060 ft 245 kts 146°
2026-04-12 07:10 67.33553 174.49310 17063 ft 246 kts 151°
2026-04-12 07:11 67.31985 174.51186 17048 ft 247 kts 151°
2026-04-12 07:11 67.30441 174.53030 17059 ft 246 kts 151°
2026-04-12 07:11 67.28891 174.54894 17065 ft 246 kts 151°
2026-04-12 07:11 67.27340 174.56764 17058 ft 246 kts 150°
2026-04-12 07:12 67.25779 174.58653 17066 ft 246 kts 150°
2026-04-12 07:12 67.24236 174.60521 17064 ft 246 kts 150°
2026-04-12 07:12 67.22683 174.62396 17059 ft 246 kts 150°
2026-04-12 07:12 67.21136 174.64262 17066 ft 246 kts 151°
2026-04-12 07:13 67.19607 174.66203 17060 ft 246 kts 150°
2026-04-12 07:13 67.18093 174.68208 17066 ft 246 kts 150°
2026-04-12 07:13 67.16566 174.70227 17059 ft 246 kts 150°
2026-04-12 07:13 67.15063 174.72208 17063 ft 246 kts 150°
2026-04-12 07:14 67.13532 174.74223 17067 ft 246 kts 150°
2026-04-12 07:14 67.12007 174.76222 17059 ft 247 kts 150°
2026-04-12 07:14 67.10472 174.78232 17064 ft 247 kts 150°
2026-04-12 07:14 67.08950 174.80219 17062 ft 247 kts 150°
2026-04-12 07:15 67.07415 174.82219 17060 ft 247 kts 150°
2026-04-12 07:15 67.05900 174.84198 17068 ft 247 kts 148°
2026-04-12 07:15 67.04398 174.86410 17057 ft 246 kts 146°
2026-04-12 07:15 67.02928 174.88657 17057 ft 246 kts 146°
2026-04-12 07:16 67.01469 174.90881 17061 ft 246 kts 146°
2026-04-12 07:16 67.00002 174.93114 17063 ft 246 kts 146°
2026-04-12 07:16 66.98526 174.95354 17063 ft 246 kts 146°
2026-04-12 07:16 66.97061 174.97572 17066 ft 246 kts 146°
2026-04-12 07:17 66.95592 174.99794 17060 ft 246 kts 146°
2026-04-12 07:17 66.94126 175.02005 17065 ft 246 kts 146°
2026-04-12 07:17 66.92653 175.04222 17065 ft 246 kts 147°
2026-04-12 07:17 66.91185 175.06429 17059 ft 246 kts 146°
2026-04-12 07:18 66.89683 175.08583 17066 ft 246 kts 148°
2026-04-12 07:18 66.88174 175.10713 17002 ft 248 kts 148°
2026-04-12 07:18 66.86681 175.12828 17052 ft 246 kts 148°
2026-04-12 07:18 66.85196 175.14937 17056 ft 245 kts 148°
2026-04-12 07:19 66.83719 175.17036 17061 ft 245 kts 148°
2026-04-12 07:19 66.82245 175.19141 17066 ft 244 kts 148°
2026-04-12 07:19 66.80755 175.21271 17059 ft 244 kts 148°
2026-04-12 07:19 66.79266 175.23406 17063 ft 244 kts 148°
2026-04-12 07:20 66.77796 175.25520 17066 ft 243 kts 148°
2026-04-12 07:20 66.76331 175.27626 17058 ft 244 kts 148°
2026-04-12 07:20 66.74860 175.29735 17064 ft 243 kts 148°
2026-04-12 07:20 66.73379 175.31856 17064 ft 243 kts 148°
2026-04-12 07:21 66.71904 175.33963 17058 ft 243 kts 148°
2026-04-12 07:21 66.70448 175.36040 17066 ft 243 kts 148°
2026-04-12 07:21 66.68964 175.38155 17064 ft 243 kts 148°
2026-04-12 07:21 66.67505 175.40233 17060 ft 243 kts 148°
2026-04-12 07:22 66.66025 175.42337 17067 ft 243 kts 148°
2026-04-12 07:22 66.64558 175.44420 17061 ft 243 kts 148°
2026-04-12 07:22 66.63090 175.46503 17062 ft 243 kts 148°
2026-04-12 07:22 66.61628 175.48573 17066 ft 243 kts 148°
2026-04-12 07:23 66.60139 175.50679 17059 ft 243 kts 148°
2026-04-12 07:23 66.58673 175.52751 17063 ft 243 kts 148°
2026-04-12 07:23 66.57241 175.54771 17065 ft 243 kts 148°
2026-04-12 07:23 66.55762 175.56854 17058 ft 243 kts 148°
2026-04-12 07:24 66.54280 175.58939 17065 ft 243 kts 148°
2026-04-12 07:24 66.52914 175.60858 17061 ft 243 kts 148°
2026-04-12 07:25 66.51547 175.62778 17061 ft 243 kts 148°
2026-04-12 07:25 66.50076 175.64839 17066 ft 243 kts 148°
2026-04-12 07:25 66.49805 175.65221 17066 ft 243 kts 148°
2026-04-12 07:25 66.49026 175.66313 17053 ft 244 kts 148°
2026-04-12 07:26 66.47544 175.68396 17059 ft 243 kts 149°
2026-04-12 07:26 66.46065 175.70442 17058 ft 244 kts 149°
2026-04-12 07:26 66.44833 175.72150 17068 ft 243 kts 149°
2026-04-12 07:27 66.44641 175.72415 17067 ft 243 kts 149°
2026-04-12 07:27 66.43709 175.73708 17056 ft 244 kts 149°
2026-04-12 07:27 66.43160 175.74471 17054 ft 244 kts 149°
2026-04-12 07:27 66.41647 175.76398 17077 ft 244 kts 152°
2026-04-12 07:28 66.40129 175.78194 17058 ft 244 kts 152°
2026-04-12 07:28 66.38586 175.80048 17066 ft 244 kts 152°
2026-04-12 07:28 66.37059 175.81895 17063 ft 244 kts 152°
2026-04-12 07:28 66.35537 175.83734 17063 ft 244 kts 152°
2026-04-12 07:29 66.34021 175.85559 17066 ft 244 kts 152°
2026-04-12 07:29 66.32488 175.87401 17060 ft 244 kts 152°
2026-04-12 07:29 66.30965 175.89229 17060 ft 245 kts 152°
2026-04-12 07:29 66.29423 175.91075 17067 ft 244 kts 152°
2026-04-12 07:30 66.27904 175.92894 17061 ft 244 kts 152°
2026-04-12 07:30 66.26379 175.94717 17061 ft 245 kts 152°
2026-04-12 07:30 66.24831 175.96565 17068 ft 244 kts 152°
2026-04-12 07:30 66.23311 175.98378 17061 ft 245 kts 152°
2026-04-12 07:31 66.21778 176.00203 17065 ft 245 kts 152°
2026-04-12 07:31 66.20240 176.02033 17064 ft 245 kts 152°
2026-04-12 07:31 66.18725 176.03832 17058 ft 245 kts 152°
2026-04-12 07:31 66.17181 176.05666 17066 ft 245 kts 152°
2026-04-12 07:32 66.15642 176.07487 17062 ft 245 kts 152°
2026-04-12 07:32 66.14110 176.09302 17063 ft 245 kts 152°
2026-04-12 07:32 66.12592 176.11096 17068 ft 245 kts 152°
2026-04-12 07:32 66.11076 176.12886 17061 ft 245 kts 152°
2026-04-12 07:33 66.09525 176.14716 17066 ft 245 kts 152°
2026-04-12 07:33 66.07984 176.16531 17065 ft 245 kts 152°
2026-04-12 07:33 66.06452 176.18335 17059 ft 246 kts 152°
2026-04-12 07:33 66.04923 176.20132 17068 ft 245 kts 152°
2026-04-12 07:34 66.03394 176.21927 17063 ft 245 kts 152°
2026-04-12 07:34 66.01840 176.23747 17061 ft 246 kts 152°
2026-04-12 07:34 66.00306 176.25543 17067 ft 245 kts 152°
2026-04-12 07:34 65.98762 176.27350 17060 ft 246 kts 152°
2026-04-12 07:35 65.97236 176.29131 17064 ft 245 kts 152°
2026-04-12 07:35 65.95699 176.30928 17068 ft 245 kts 151°
2026-04-12 07:35 65.94171 176.32806 17060 ft 246 kts 151°
2026-04-12 07:35 65.92638 176.34686 17062 ft 245 kts 151°
2026-04-12 07:36 65.91108 176.36543 17057 ft 246 kts 151°
2026-04-12 07:36 65.89591 176.38362 17059 ft 246 kts 152°
2026-04-12 07:36 65.88048 176.40179 17014 ft 247 kts 152°
2026-04-12 07:36 65.86490 176.41986 17062 ft 245 kts 152°
2026-04-12 07:37 65.84965 176.43750 17059 ft 245 kts 152°
2026-04-12 07:37 65.83437 176.45557 17074 ft 244 kts 150°
2026-04-12 07:37 65.81902 176.47453 17056 ft 245 kts 151°
2026-04-12 07:37 65.80394 176.49275 17066 ft 245 kts 150°
2026-04-12 07:38 65.78852 176.51123 17062 ft 245 kts 151°
2026-04-12 07:38 65.77338 176.52927 17062 ft 245 kts 151°
2026-04-12 07:38 65.75795 176.54756 17065 ft 245 kts 151°
2026-04-12 07:38 65.74263 176.56563 17058 ft 245 kts 151°
2026-04-12 07:39 65.72733 176.58357 17066 ft 245 kts 151°
2026-04-12 07:39 65.71207 176.60139 17065 ft 245 kts 151°
2026-04-12 07:39 65.69658 176.61938 17063 ft 245 kts 151°
2026-04-12 07:39 65.68126 176.63710 17066 ft 245 kts 151°
2026-04-12 07:40 65.66625 176.65428 16963 ft 232 kts 152°
2026-04-12 07:40 65.65201 176.67053 16646 ft 228 kts 152°
2026-04-12 07:40 65.63776 176.68695 16279 ft 226 kts 152°
2026-04-12 07:40 65.62363 176.70340 15910 ft 224 kts 152°
2026-04-12 07:41 65.61000 176.72031 15559 ft 222 kts 150°
2026-04-12 07:41 65.59647 176.73791 15209 ft 220 kts 150°
2026-04-12 07:41 65.58312 176.75503 14959 ft 216 kts 150°
2026-04-12 07:41 65.56973 176.77214 14997 ft 217 kts 150°
2026-04-12 07:42 65.55655 176.78896 15030 ft 219 kts 150°
2026-04-12 07:42 65.54311 176.80611 15056 ft 222 kts 150°
2026-04-12 07:42 65.52956 176.82335 14967 ft 216 kts 150°
2026-04-12 07:43 65.49140 176.87158 14188 ft 201 kts 150°
2026-04-12 07:43 65.47914 176.88709 13887 ft 198 kts 150°
2026-04-12 07:43 65.46701 176.90242 13579 ft 197 kts 150°
2026-04-12 07:44 65.45508 176.91750 13272 ft 195 kts 150°
2026-04-12 07:44 65.44279 176.93161 12970 ft 194 kts 156°
2026-04-12 07:44 65.43026 176.94295 12668 ft 193 kts 157°
2026-04-12 07:44 65.41773 176.95418 12356 ft 193 kts 157°
2026-04-12 07:45 65.40514 176.96558 12046 ft 192 kts 157°
2026-04-12 07:45 65.39273 176.97687 11741 ft 192 kts 157°
2026-04-12 07:45 65.38031 176.98819 11436 ft 191 kts 157°
2026-04-12 07:45 65.36802 176.99933 11134 ft 191 kts 157°
2026-04-12 07:46 65.35556 177.01057 10805 ft 192 kts 157°
2026-04-12 07:46 65.34294 177.02191 10472 ft 194 kts 157°
2026-04-12 07:46 65.33033 177.03322 10149 ft 195 kts 157°
2026-04-12 07:46 65.31767 177.04459 9816 ft 196 kts 157°
2026-04-12 07:47 65.30486 177.05611 9490 ft 197 kts 157°
2026-04-12 07:47 65.29208 177.06758 9176 ft 198 kts 157°
2026-04-12 07:47 65.27929 177.07906 8901 ft 196 kts 157°
2026-04-12 07:47 65.26656 177.09045 8637 ft 194 kts 157°
2026-04-12 07:48 65.25407 177.10170 8363 ft 193 kts 157°
2026-04-12 07:48 65.24161 177.11291 8085 ft 192 kts 157°
2026-04-12 07:48 65.22917 177.12410 7805 ft 191 kts 157°
2026-04-12 07:48 65.21679 177.13530 7525 ft 190 kts 157°
2026-04-12 07:49 65.20445 177.14650 7238 ft 190 kts 157°
2026-04-12 07:49 65.19222 177.15773 6964 ft 189 kts 157°
2026-04-12 07:49 65.17989 177.16921 6683 ft 189 kts 157°
2026-04-12 07:49 65.16770 177.18062 6415 ft 189 kts 156°
2026-04-12 07:50 65.15571 177.19192 6141 ft 188 kts 157°
2026-04-12 07:50 65.14347 177.20355 5882 ft 187 kts 157°
2026-04-12 07:50 65.13155 177.21501 5658 ft 190 kts 157°
2026-04-12 07:50 65.11892 177.22731 5500 ft 199 kts 158°
2026-04-12 07:51 65.10609 177.23988 5424 ft 201 kts 157°
2026-04-12 07:51 65.09311 177.25269 5370 ft 202 kts 158°
2026-04-12 07:51 65.08010 177.26553 5322 ft 202 kts 157°
2026-04-12 07:51 65.06744 177.27802 5346 ft 199 kts 157°
2026-04-12 07:52 65.05513 177.29013 5359 ft 196 kts 157°
2026-04-12 07:52 65.04257 177.30258 5361 ft 194 kts 157°
2026-04-12 07:52 65.03023 177.31485 5354 ft 193 kts 157°
2026-04-12 07:52 65.01794 177.32701 5350 ft 192 kts 157°
2026-04-12 07:53 65.00570 177.33903 5351 ft 190 kts 157°
2026-04-12 07:53 64.99348 177.35101 5354 ft 189 kts 157°
2026-04-12 07:53 64.98146 177.36272 5360 ft 187 kts 158°
2026-04-12 07:53 64.96932 177.37454 5358 ft 186 kts 156°
2026-04-12 07:54 64.95752 177.38603 5360 ft 185 kts 157°
2026-04-12 07:54 64.94563 177.39758 5354 ft 184 kts 157°
2026-04-12 07:54 64.93381 177.40955 5365 ft 183 kts 153°
2026-04-12 07:54 64.92276 177.42394 5360 ft 182 kts 148°
2026-04-12 07:55 64.91188 177.43900 5348 ft 182 kts 148°
2026-04-12 07:55 64.90078 177.45296 5369 ft 180 kts 152°
2026-04-12 07:55 64.88953 177.46626 5315 ft 183 kts 153°
2026-04-12 07:55 64.87818 177.47942 5347 ft 182 kts 152°
2026-04-12 07:56 64.86676 177.49248 5382 ft 185 kts 153°
2026-04-12 07:56 64.85490 177.50580 5396 ft 190 kts 153°
2026-04-12 07:56 64.84293 177.51910 5379 ft 196 kts 153°
2026-04-12 07:56 64.83030 177.53293 5381 ft 200 kts 154°
2026-04-12 07:57 64.81757 177.54671 5372 ft 204 kts 153°
2026-04-12 07:57 64.80453 177.56065 5372 ft 208 kts 155°
2026-04-12 07:57 64.79130 177.57478 5379 ft 210 kts 154°
2026-04-12 07:57 64.77787 177.58939 5371 ft 213 kts 154°
2026-04-12 07:58 64.76442 177.60397 5370 ft 215 kts 155°
2026-04-12 07:58 64.75082 177.61861 5365 ft 218 kts 154°
2026-04-12 07:58 64.73684 177.63362 5360 ft 220 kts 155°
2026-04-12 07:58 64.72298 177.64864 5358 ft 221 kts 155°
2026-04-12 07:59 64.70898 177.66376 5365 ft 221 kts 155°
2026-04-12 07:59 64.69546 177.67850 5277 ft 210 kts 155°
2026-04-12 07:59 64.68190 177.68896 5080 ft 202 kts 174°
2026-04-12 07:59 64.66827 177.68788 4868 ft 193 kts 198°
2026-04-12 08:00 64.65575 177.67929 4638 ft 188 kts 202°
2026-04-12 08:00 64.64324 177.67012 4385 ft 186 kts 202°
2026-04-12 08:00 64.63103 177.66144 4145 ft 183 kts 202°
2026-04-12 08:00 64.61880 177.65302 3969 ft 187 kts 201°
2026-04-12 08:01 64.60638 177.64414 3896 ft 188 kts 202°
2026-04-12 08:01 64.59366 177.63521 3837 ft 189 kts 202°
2026-04-12 08:01 64.58121 177.62659 3783 ft 185 kts 201°
2026-04-12 08:01 64.56906 177.61801 3693 ft 180 kts 203°
2026-04-12 08:02 64.55795 177.61067 3673 ft 162 kts 201°
2026-04-12 08:02 64.54748 177.60446 3707 ft 151 kts 200°
2026-04-12 08:02 64.53754 177.59877 3861 ft 145 kts 200°
2026-04-12 08:02 64.52765 177.59328 3918 ft 148 kts 202°
2026-04-12 08:03 64.51731 177.58754 3827 ft 158 kts 199°
2026-04-12 08:03 64.50658 177.58162 3774 ft 160 kts 200°
2026-04-12 08:03 64.49575 177.57582 3764 ft 158 kts 198°
2026-04-12 08:03 64.48522 177.57034 3754 ft 156 kts 200°
2026-04-12 08:04 64.47461 177.56499 3739 ft 155 kts 198°
2026-04-12 08:04 64.46422 177.55991 3739 ft 151 kts 197°
2026-04-12 08:04 64.45387 177.55504 3727 ft 149 kts 199°
2026-04-12 08:04 64.44386 177.55048 3731 ft 145 kts 198°
2026-04-12 08:05 64.43398 177.54614 3741 ft 144 kts 198°
2026-04-12 08:05 64.42412 177.54193 3732 ft 144 kts 196°
2026-04-12 08:05 64.41406 177.54244 3726 ft 148 kts 166°
2026-04-12 08:05 64.40544 177.55490 3714 ft 146 kts 129°
2026-04-12 08:06 64.40115 177.57530 3710 ft 138 kts 91°
2026-04-12 08:06 64.40258 177.59544 3730 ft 120 kts 52°
2026-04-12 08:06 64.40816 177.60724 3741 ft 105 kts 11°
2026-04-12 08:06 64.41532 177.61128 3774 ft 106 kts
2026-04-12 08:07 64.42223 177.61845 3816 ft 113 kts 21°
2026-04-12 08:07 64.42925 177.62775 3810 ft 121 kts 22°
2026-04-12 08:07 64.43690 177.63647 3826 ft 123 kts
2026-04-12 08:07 64.44550 177.63856 3761 ft 129 kts 350°
2026-04-12 08:08 64.45470 177.63567 3744 ft 136 kts 349°
2026-04-12 08:08 64.46429 177.63248 3759 ft 140 kts 350°
2026-04-12 08:08 64.47403 177.63042 3807 ft 143 kts 358°
2026-04-12 08:08 64.48406 177.63507 3623 ft 150 kts 15°
2026-04-12 08:09 64.49322 177.64659 3379 ft 152 kts 26°
2026-04-12 08:09 64.50215 177.65951 3128 ft 151 kts 24°
2026-04-12 08:09 64.51177 177.66835 2869 ft 143 kts
2026-04-12 08:09 64.52129 177.67040 2598 ft 137 kts 356°
2026-04-12 08:10 64.53078 177.67145 2304 ft 136 kts 356°
2026-04-12 08:10 64.54000 177.67227 2303 ft 126 kts 355°
2026-04-12 08:10 64.54833 177.67317 2372 ft 108 kts 356°
2026-04-12 08:10 64.55532 177.67409 2340 ft 98 kts 356°
2026-04-12 08:11 64.56184 177.67502 2279 ft 89 kts 355°
2026-04-12 08:11 64.56782 177.67587 2314 ft 84 kts 357°
2026-04-12 08:11 64.57359 177.67677 2398 ft 85 kts 355°
2026-04-12 08:11 64.57968 177.67722 2498 ft 90 kts 353°
2026-04-12 08:12 64.58602 177.67677 2478 ft 100 kts 351°
2026-04-12 08:12 64.59297 177.67635 2364 ft 99 kts 350°
2026-04-12 08:12 64.59995 177.67564 2325 ft 100 kts 350°
2026-04-12 08:12 64.60680 177.67606 2330 ft 102 kts
2026-04-12 08:13 64.61375 177.67982 2241 ft 101 kts 349°
2026-04-12 08:13 64.62083 177.68072 2179 ft 105 kts
2026-04-12 08:13 64.62815 177.68600 1915 ft 114 kts 358°
2026-04-12 08:13 64.63541 177.68738 1874 ft 98 kts 350°
2026-04-12 08:14 64.64252 177.68634 1610 ft 107 kts 352°
2026-04-12 08:14 64.64982 177.69022 1427 ft 110 kts
2026-04-12 08:14 64.65713 177.69621 1260 ft 107 kts
2026-04-12 08:14 64.66455 177.69965 1039 ft 108 kts 356°
2026-04-12 08:15 64.67171 177.70210 928 ft 104 kts
2026-04-12 08:15 64.67863 177.70799 864 ft 107 kts 16°
2026-04-12 08:15 64.68529 177.71544 731 ft 103 kts 358°
2026-04-12 08:15 64.69233 177.71828 623 ft 102 kts 358°
2026-04-12 08:16 64.69934 177.72054 534 ft 98 kts 354°
2026-04-12 08:16 64.70634 177.72534 346 ft 112 kts 11°
2026-04-12 08:16 64.71323 177.73222 282 ft 104 kts
2026-04-12 08:16 64.72018 177.73724 186 ft 103 kts
2026-04-12 08:17 64.72695 177.74071 174 ft 96 kts 358°
2026-04-12 08:17 64.73339 177.74179 158 ft 91 kts 348°
2026-04-12 08:17 64.73972 177.74297 151 ft 84 kts
2026-04-12 08:17 64.74416 177.74481 151 ft 40 kts 358°
2026-04-12 08:18 64.74573 177.74373 151 ft 13 kts 290°
2026-04-12 08:18 64.74579 177.74309 151 ft 0 kts 268°
2026-04-12 08:18 64.74579 177.74307 151 ft 1 kts 268°
2026-04-12 08:18 64.74577 177.74272 151 ft 0 kts 258°
2026-04-12 08:19 64.74573 177.74258 151 ft 8 kts 238°
2026-04-12 08:19 64.74511 177.74162 151 ft 4 kts 202°
2026-04-12 08:19 64.74483 177.74161 151 ft 10 kts 172°
2026-04-12 08:19 64.74367 177.74175 151 ft 23 kts 193°
2026-04-12 08:20 64.74175 177.74062 151 ft 32 kts 196°
2026-04-12 08:20 64.73935 177.73914 151 ft 37 kts 195°
2026-04-12 08:20 64.73769 177.73618 151 ft 20 kts 260°
2026-04-12 08:20 64.73770 177.73396 151 ft 17 kts 264°
2026-04-12 08:21 64.73677 177.73149 151 ft 24 kts 191°
2026-04-12 08:21 64.73496 177.73207 151 ft 29 kts 159°
2026-04-12 08:21 64.73323 177.73358 151 ft 23 kts 165°
2026-04-12 08:21 64.73181 177.73427 151 ft 13 kts 191°
2026-04-12 08:22 64.73132 177.73408 151 ft 9 kts 191°
2026-04-12 08:22 64.73007 177.73340 151 ft 26 kts 195°
2026-04-12 08:22 64.72817 177.73219 151 ft 24 kts 193°
2026-04-12 08:22 64.72703 177.73146 151 ft 11 kts 192°
2026-04-12 08:23 64.72581 177.73076 151 ft 25 kts 195°
2026-04-12 08:23 64.72393 177.72960 151 ft 23 kts 198°
2026-04-12 08:23 64.72288 177.72884 151 ft 9 kts 192°
2026-04-12 08:23 64.72263 177.72871 151 ft 0 kts 192°
2026-04-12 08:24 64.72226 177.72850 151 ft 17 kts 194°
2026-04-12 08:24 64.72134 177.72906 151 ft 9 kts 142°
2026-04-12 08:24 64.72069 177.73030 151 ft 20 kts 142°
2026-04-12 08:24 64.71998 177.73228 151 ft 11 kts 103°
2026-04-12 08:25 64.71976 177.73351 151 ft 6 kts 144°
2026-04-12 08:25 64.71942 177.73351 151 ft 0 kts 191°
2026-04-12 08:25 64.71903 177.73367 151 ft 13 kts 157°
2026-04-12 08:25 64.71847 177.73430 151 ft 5 kts 155°
2026-04-12 08:26 64.71822 177.73459 151 ft 2 kts 154°
2026-04-12 08:26 64.71725 177.73585 151 ft 24 kts 140°
2026-04-12 08:26 64.71591 177.73848 151 ft 18 kts 141°
2026-04-12 08:26 64.71584 177.73969 151 ft 4 kts 18°